TimeCDT,TemperatureF,Dew PointF,Humidity,Sea Level PressureIn,VisibilityMPH,Wind Direction,Wind SpeedMPH,Gust SpeedMPH,PrecipitationIn,Events,Conditions,WindDirDegrees,DateUTC
12:09 AM,36.5,29.3,75,30.15,10.0,NE,3.5,-,N/A,,Overcast,50,2012-11-03 05:09:00
12:28 AM,36.5,29.3,75,30.16,10.0,Calm,Calm,-,N/A,,Overcast,0,2012-11-03 05:28:00
12:49 AM,36.5,28.9,74,30.16,10.0,NE,4.6,-,N/A,,Overcast,50,2012-11-03 05:49:00
1:09 AM,36.5,29.3,75,30.16,10.0,Calm,Calm,-,N/A,,Overcast,0,2012-11-03 06:09:00
1:28 AM,36.5,29.3,75,30.16,10.0,Calm,Calm,-,N/A,,Overcast,0,2012-11-03 06:28:00
1:49 AM,36.5,30.0,77,30.15,10.0,Calm,Calm,-,N/A,,Overcast,0,2012-11-03 06:49:00
2:08 AM,36.5,30.6,79,30.15,10.0,Calm,Calm,-,N/A,,Overcast,0,2012-11-03 07:08:00
2:28 AM,36.5,30.9,80,30.15,10.0,Calm,Calm,-,N/A,,Overcast,0,2012-11-03 07:28:00
2:49 AM,36.5,29.3,75,30.15,10.0,Calm,Calm,-,N/A,,Overcast,0,2012-11-03 07:49:00
3:08 AM,36.5,30.0,77,30.14,10.0,Calm,Calm,-,N/A,,Overcast,0,2012-11-03 08:08:00
3:09 AM,36.5,30.2,78,30.14,10.0,Calm,Calm,-,N/A,,Overcast,0,2012-11-03 08:09:00
3:50 AM,35.6,32.0,87,30.15,10.0,Calm,Calm,-,N/A,,Overcast,0,2012-11-03 08:50:00
4:10 AM,35.6,30.2,81,30.15,10.0,Calm,Calm,-,N/A,,Overcast,0,2012-11-03 09:10:00
4:30 AM,35.6,30.2,81,30.15,10.0,Calm,Calm,-,N/A,,Overcast,0,2012-11-03 09:30:00
4:50 AM,35.6,30.2,81,30.15,10.0,Calm,Calm,-,N/A,,Overcast,0,2012-11-03 09:50:00
5:10 AM,35.6,32.0,87,30.16,10.0,NNW,3.5,-,N/A,,Overcast,340,2012-11-03 10:10:00
5:30 AM,35.6,32.0,87,30.17,10.0,Calm,Calm,-,N/A,,Overcast,0,2012-11-03 10:30:00
5:50 AM,35.6,32.0,87,30.17,10.0,North,3.5,-,N/A,,Overcast,350,2012-11-03 10:50:00
6:10 AM,35.6,32.0,87,30.18,10.0,Calm,Calm,-,N/A,,Mostly Cloudy,0,2012-11-03 11:10:00
6:30 AM,35.6,32.0,87,30.18,7.0,WNW,3.5,-,N/A,,Overcast,300,2012-11-03 11:30:00
6:50 AM,35.6,32.0,87,30.18,10.0,Calm,Calm,-,N/A,,Overcast,0,2012-11-03 11:50:00
7:10 AM,35.6,32.0,87,30.17,10.0,NNE,3.5,-,N/A,,Overcast,20,2012-11-03 12:10:00
7:30 AM,35.6,32.0,87,30.18,10.0,Calm,Calm,-,N/A,,Overcast,0,2012-11-03 12:30:00
7:50 AM,35.6,32.0,87,30.17,10.0,Calm,Calm,-,N/A,,Mostly Cloudy,0,2012-11-03 12:50:00
8:10 AM,35.6,32.0,87,30.18,10.0,Calm,Calm,-,N/A,,Overcast,0,2012-11-03 13:10:00
8:30 AM,35.6,32.0,87,30.19,10.0,Calm,Calm,-,N/A,,Overcast,0,2012-11-03 13:30:00
8:31 AM,36.5,32.0,84,30.19,10.0,Calm,Calm,-,N/A,,Overcast,0,2012-11-03 13:31:00
8:49 AM,36.5,32.0,84,30.19,10.0,ENE,3.5,-,N/A,,Overcast,70,2012-11-03 13:49:00
9:05 AM,36.5,31.3,81,30.20,10.0,Calm,Calm,-,N/A,,Overcast,0,2012-11-03 14:05:00
9:30 AM,35.6,30.2,81,30.20,10.0,NE,3.5,-,N/A,,Overcast,50,2012-11-03 14:30:00
9:41 AM,-9999,-9999,N/A,30.20,10.0,NE,4.6,-,N/A,,Overcast,50,2012-11-03 14:41:00
9:49 AM,36.5,30.9,80,30.20,10.0,NE,5.8,-,N/A,,Overcast,50,2012-11-03 14:49:00
10:09 AM,36.5,30.9,80,30.20,10.0,ENE,4.6,-,N/A,,Overcast,60,2012-11-03 15:09:00
10:29 AM,36.5,30.9,80,30.20,10.0,Calm,Calm,-,N/A,,Overcast,0,2012-11-03 15:29:00
10:47 AM,36.7,30.9,80,30.20,10.0,East,3.5,-,N/A,,Overcast,80,2012-11-03 15:47:00
11:08 AM,36.9,31.3,80,30.21,10.0,Calm,Calm,-,N/A,,Overcast,0,2012-11-03 16:08:00
11:29 AM,38.7,32.4,78,30.21,10.0,Calm,Calm,-,N/A,,Overcast,0,2012-11-03 16:29:00
11:49 AM,39.2,32.2,76,30.21,10.0,Calm,Calm,-,N/A,,Overcast,0,2012-11-03 16:49:00
12:09 PM,39.2,31.8,75,30.21,10.0,Calm,Calm,-,N/A,,Overcast,0,2012-11-03 17:09:00
12:28 PM,39.2,31.6,74,30.20,10.0,Calm,Calm,-,N/A,,Overcast,0,2012-11-03 17:28:00
12:49 PM,39.2,31.3,73,30.20,10.0,Calm,Calm,-,N/A,,Overcast,0,2012-11-03 17:49:00
1:09 PM,39.2,31.3,73,30.20,10.0,South,3.5,-,N/A,,Overcast,170,2012-11-03 18:09:00
1:28 PM,39.7,31.3,72,30.20,10.0,Calm,Calm,-,N/A,,Overcast,0,2012-11-03 18:28:00
1:49 PM,40.3,30.9,69,30.19,10.0,Calm,Calm,-,N/A,,Overcast,0,2012-11-03 18:49:00
2:09 PM,40.5,31.1,69,30.20,10.0,Calm,Calm,-,N/A,,Overcast,0,2012-11-03 19:09:00
2:28 PM,40.6,31.3,69,30.20,10.0,Calm,Calm,-,N/A,,Overcast,0,2012-11-03 19:28:00
2:49 PM,41.5,31.8,68,30.19,10.0,Calm,Calm,-,N/A,,Overcast,0,2012-11-03 19:49:00
3:08 PM,41.4,31.6,68,30.19,10.0,Calm,Calm,-,N/A,,Overcast,0,2012-11-03 20:08:00
3:29 PM,41.5,31.6,68,30.19,10.0,Calm,Calm,-,N/A,,Overcast,0,2012-11-03 20:29:00
3:49 PM,41.5,31.1,66,30.18,10.0,Calm,Calm,-,N/A,,Mostly Cloudy,0,2012-11-03 20:49:00
4:08 PM,41.5,31.1,66,30.18,10.0,Calm,Calm,-,N/A,,Overcast,0,2012-11-03 21:08:00
4:29 PM,41.5,31.1,66,30.18,10.0,Calm,Calm,-,N/A,,Overcast,0,2012-11-03 21:29:00
4:49 PM,41.5,31.1,66,30.18,10.0,Calm,Calm,-,N/A,,Overcast,0,2012-11-03 21:49:00
5:09 PM,41.5,31.1,66,30.18,10.0,Calm,Calm,-,N/A,,Overcast,0,2012-11-03 22:09:00
5:29 PM,41.5,31.1,66,30.18,10.0,Calm,Calm,-,N/A,,Overcast,0,2012-11-03 22:29:00
5:48 PM,40.6,30.7,68,30.18,10.0,Calm,Calm,-,N/A,,Overcast,0,2012-11-03 22:48:00
6:09 PM,40.3,31.5,71,30.18,10.0,ESE,3.5,-,N/A,,Overcast,110,2012-11-03 23:09:00
6:28 PM,39.2,31.1,73,30.18,10.0,Calm,Calm,-,N/A,,Overcast,0,2012-11-03 23:28:00
6:48 PM,39.2,31.1,73,30.19,10.0,Calm,Calm,-,N/A,,Scattered Clouds,0,2012-11-03 23:48:00
7:09 PM,39.2,31.8,75,30.19,10.0,East,3.5,-,N/A,,Scattered Clouds,80,2012-11-04 00:09:00
7:29 PM,39.2,32.0,75,30.19,10.0,Calm,Calm,-,N/A,,Mostly Cloudy,0,2012-11-04 00:29:00
7:49 PM,39.2,32.5,77,30.20,10.0,Calm,Calm,-,N/A,,Overcast,0,2012-11-04 00:49:00
8:09 PM,39.2,33.3,79,30.19,10.0,Calm,Calm,-,N/A,,Light Drizzle,0,2012-11-04 01:09:00
8:29 PM,39.2,32.9,78,30.19,10.0,ENE,3.5,-,N/A,,Scattered Clouds,60,2012-11-04 01:29:00
8:49 PM,39.2,33.1,79,30.19,10.0,ENE,3.5,-,N/A,Rain,Rain,70,2012-11-04 01:49:00
9:09 PM,39.2,33.1,79,30.20,10.0,NE,3.5,-,N/A,,Light Drizzle,50,2012-11-04 02:09:00
9:28 PM,39.2,34.2,82,30.20,10.0,ENE,3.5,-,N/A,Rain,Light Rain,60,2012-11-04 02:28:00
9:49 PM,39.2,35.2,86,30.21,10.0,ENE,3.5,-,N/A,Rain,Rain,70,2012-11-04 02:49:00
10:08 PM,38.8,35.6,88,30.21,10.0,ENE,3.5,-,N/A,Rain,Light Rain,70,2012-11-04 03:08:00
10:28 PM,37.8,35.2,91,30.21,10.0,Calm,Calm,-,N/A,Rain,Rain,0,2012-11-04 03:28:00
10:49 PM,36.9,34.9,93,30.21,10.0,ENE,4.6,-,N/A,,Drizzle,60,2012-11-04 03:49:00
11:08 PM,36.5,34.7,93,30.21,10.0,ENE,4.6,-,0.01,,Drizzle,60,2012-11-04 04:08:00
11:29 PM,36.5,34.9,94,30.21,10.0,East,4.6,-,0.01,,Light Drizzle,80,2012-11-04 04:29:00
11:48 PM,36.5,35.2,95,30.21,10.0,East,3.5,-,0.01,,Drizzle,80,2012-11-04 04:48:00